STARLINK-2429, 47838

Orbit data source: Space-Track

STARLINK-2429, 47838 is a payload satellite owned by SpaceX/Seattle (US) in LEO that was launched on Thu, 11 Mar 2021 UTC via an FALCON 9 launch vehicle from the Air Force Eastern Test Range (AFETR). Payload-class satellites include a variety of spacecraft equipped with specific instruments for various scientific and technological missions. These include communications satellites like Starlink; space stations such as the ISS; scientific satellites like the Hubble; Earth observation satellites from companies like Planet Labs, Umbra, and HawkEye 360; GPS; miniature CubeSats for education and research; and military/defense satellites.

Loading next visibility...
Identifier
47838, 2021-018BD
Orbit
LEO
Country
Flag of USUS
Related business
Manufacturer
SpaceX/Seattle
Mission
Operational Commercial Communications
Bus & Motor
STARLINK, Unknown motor
Mass
260 kg wet, ~248 kg dry
Launch date (UTC)
2021-03-11 (5 years ago)
Launch vehicle
FALCON 9
Launch site
Air Force Eastern Test Range (AFETR)
Object type
Payload
Rocket body
Debris
Shape & HBR
Box + 1 Pan, 10.1 m
Radar Cross Section
13.562 m², Large (>1 m²)

Expand to show TLE details & history
Last TLE update: 2 days ago

TLE from 2 days ago
0 STARLINK-2429
1 47838U 21018BD  26171.17830936  .00000464  00000-0  26704-4 0  9993
2 47838  53.1583 128.9514 0001440 103.8730 256.2432 15.31701601292381
Epoch: 2026-06-20T04:16Z
TLE epoch observation values (Epoch: 2026-06-20T04:16:45.928Z)
Latitude
-0.00001°
Longitude
156.36337°
Altitude
471.87 km
Speed
7.631 km/s
True Right ascension
08h 35m 48s
True Declination
0° 00' 00"
Sunlit
Object was in daylight at epoch
Visualization orbit readout
Latitude
Unknown
Longitude
Unknown
Altitude
Unknown
Speed
Unknown
Apparent Right ascension
Unknown
Apparent Declination
Unknown
Sunlit
N/A
Visualization observer readout
Local Sidereal Time
21:42:10
Azimuth
Unknown
Elevation
Unknown
Doppler factor
Unknown
Orbital elements
Apogee altitude
471.978 km
Perigee altitude
470.006 km
Semi-major axis
6,849.129 km
Eccentricity
0.00014
Inclination
53.1583°
RAAN
128.9514°
Arg. of periapsis
103.873°
True anomaly
256.22717°
Mean anomaly
256.2432°
Eccentric anomaly
256.23519°
Mean motion
3.82904 °/min
Orbital period
94.02 mins
BSTAR
0.000026704
Loading maneuver chart data...
Computing Atmospheric mass density...
Loading historical data...
Loading historical data...
Loading historical data...
Loading historical data...
Loading historical data...
Loading historical data...
Loading historical data...

Documentation

Showing up to 5 results
|